{"data":{"norad_id":39237,"intl_designator":"2013-045A","name":"AMOS-4","alt_names":[],"object_type":"PAYLOAD","status":"ACTIVE","operator":null,"country":"ISRA","launch_date":"2013-08-31","launch_site_code":"TYMSC","launch_vehicle":null,"mission":null,"orbit_class":"UNKNOWN","rcs_meters":7.9433,"size_class":null,"mass_kg":null,"dimensions":null,"purposes":["comms"],"wikipedia_slug":null,"has_3d_model":false,"image_url":null,"decayed_at":null,"tle_current":{"epoch":"2026-09-20T01:50:00.331872Z","epoch_age_seconds":62267,"freshness":"FRESH","line1":"1 39237U 13045A   26263.07639273  .00000003  00000+0  00000+0 0  9994","line2":"2 39237   0.0290 234.9382 0001199 293.0368 283.5211  1.00271338 47906","mean_motion":1.00271338,"eccentricity":0.0001199,"inclination_deg":0.029,"raan_deg":234.9382,"arg_perigee_deg":293.0368,"mean_anomaly_deg":283.5211,"bstar":0,"rev_number":4790,"period_min":1436.1033060115,"perigee_km":35781.664705596,"apogee_km":35791.77583837,"semimajor_km":42164.857271983,"source":"CELESTRAK","updated_at":"2026-09-20T09:00:35.206240Z"}}}